CSCL Arctic Ocean — VROD9 — position and weather

sailwx.info

Track history (hours):
 
Tides and Currents Weather Stations Pressure Air Temp Water Temp Dewpoint Dewpoint Depression Visibility Wind Speed Wind Dir Waves Ship Positions

CSCL Arctic Ocean

Last reported at 2018-Feb-16 13:30 UTC. Time now 2018-Feb-20 13:56 UTC.
Position N 23°05' E 117°17'.

Length 400 m; draft 11.4 m.

Type: Ship (hazmat cat A). MMSI: 477967700.

Date/timePositionNaut miles runAvg speedWind from/ knotsBaromVisibWave heightAir tempDewpointWater temp
2018-Feb-16 13:30N 23°05' E 117°17'917.9
2018-Feb-16 13:00N 23°10' E 117°24'917.5
2018-Feb-16 12:30N 23°15' E 117°32'917.6
2018-Feb-16 12:00N 23°20' E 117°40'917.9
2018-Feb-16 11:29N 23°25' E 117°49'918.2
2018-Feb-16 11:00N 23°29' E 117°57'918.0
2018-Feb-16 10:30N 23°37' E 118°03'1118.2
2018-Feb-16 09:55N 23°46' E 118°08'818.3
2018-Feb-16 09:30N 23°53' E 118°12'918.5
2018-Feb-16 09:00N 24°01' E 118°16'918.3
2018-Feb-16 08:30N 24°10' E 118°19'917.7
2018-Feb-16 08:00N 24°17' E 118°13'815.8
2018-Feb-16 07:29N 24°23' E 118°07'611.8
2018-Feb-16 07:00N 24°26' E 118°02'4 6.0
2018-Feb-16 06:25N 24°27' E 117°58'0 0.2
2018-Feb-16 05:55N 24°27' E 117°58'0 0.0
2018-Feb-16 05:28N 24°27' E 117°58'0 0.0
2018-Feb-16 04:55N 24°27' E 117°58'0 0.0
2018-Feb-16 04:28N 24°27' E 117°58'0 0.0
2018-Feb-16 03:58N 24°27' E 117°58'0 0.0
2018-Feb-16 03:28N 24°27' E 117°58'0 0.0
2018-Feb-16 02:58N 24°27' E 117°58'0 0.0
2018-Feb-16 02:22N 24°27' E 117°58'0 0.0
2018-Feb-16 01:58N 24°27' E 117°58'0 0.0
2018-Feb-16 01:28N 24°27' E 117°58'0 0.0
2018-Feb-16 00:49N 24°27' E 117°58'0 0.0
2018-Feb-16 00:28N 24°27' E 117°58'0 0.0
2018-Feb-15 23:55N 24°27' E 117°58'0 0.0
2018-Feb-15 23:19N 24°27' E 117°58'0 0.2
2018-Feb-15 22:58N 24°27' E 117°58'0 0.1
2018-Feb-15 22:28N 24°27' E 117°58'0 0.0
2018-Feb-15 21:58N 24°27' E 117°58'0 0.0
2018-Feb-15 21:28N 24°27' E 117°58'0 0.0
2018-Feb-15 20:58N 24°27' E 117°58'0 0.0
2018-Feb-15 20:28N 24°27' E 117°58'0 0.0
2018-Feb-15 19:58N 24°27' E 117°58'0 0.0
2018-Feb-15 19:28N 24°27' E 117°58'0 0.0
2018-Feb-15 18:58N 24°27' E 117°58'0 0.0
2018-Feb-15 18:25N 24°27' E 117°58'0 0.0
2018-Feb-15 17:58N 24°27' E 117°58'0 0.0
2018-Feb-15 17:25N 24°27' E 117°58'0 0.1
2018-Feb-15 16:58N 24°27' E 117°58'0 0.1
2018-Feb-15 16:22N 24°27' E 117°58'0 0.0
2018-Feb-15 15:58N 24°27' E 117°58'0 0.0
2018-Feb-15 13:31N 24°27' E 117°58'0 0.2
2018-Feb-15 13:28N 24°27' E 117°58'0 0.0
2018-Feb-15 12:55N 24°27' E 117°58'0 0.0
2018-Feb-15 10:34N 24°27' E 117°58'0 0.0
2018-Feb-15 10:28N 24°27' E 117°58'0 0.0
2018-Feb-15 09:58N 24°27' E 117°58'0 0.1
2018-Feb-15 09:25N 24°27' E 117°58'0 0.1
2018-Feb-15 08:58N 24°27' E 117°58'0 0.0
2018-Feb-15 08:19N 24°27' E 117°58'0 0.0
2018-Feb-15 07:58N 24°27' E 117°58'0 0.0
2018-Feb-15 07:28N 24°27' E 117°58'0 0.0
2018-Feb-15 06:58N 24°27' E 117°58'0 0.0
2018-Feb-15 06:22N 24°27' E 117°58'0 0.0
2018-Feb-15 05:58N 24°27' E 117°58'0 0.4
2018-Feb-15 05:30N 24°27' E 117°59'3 5.9
2018-Feb-15 05:00N 24°26' E 118°02'612.2
2018-Feb-15 04:29N 24°23' E 118°08'611.9
2018-Feb-15 04:00N 24°19' E 118°12'713.7
2018-Feb-15 03:31N 24°13' E 118°17'612.4
2018-Feb-15 03:01N 24°11' E 118°23'1 2.2
2018-Feb-15 02:30N 24°10' E 118°24'3 5.9
2018-Feb-15 02:01N 24°11' E 118°27'713.0
2018-Feb-15 01:30N 24°13' E 118°34'15412.3
2018-Feb-14 12:56N 26°01' E 120°36'613.1
2018-Feb-14 12:30N 26°05' E 120°39'612.8
2018-Feb-14 12:00N 26°11' E 120°43'2112.8
2018-Feb-14 10:24N 26°27' E 120°56'612.8
2018-Feb-14 09:56N 26°32' E 121°00'512.5
2018-Feb-14 09:30N 26°37' E 121°03'712.7
2018-Feb-14 08:58N 26°43' E 121°07'812.7
2018-Feb-14 08:19N 26°50' E 121°12'230 8.4
2018-Feb-13 05:05N 30°33' E 122°14'215.2
2018-Feb-13 04:59N 30°34' E 122°12'7 0.2
2018-Feb-11 13:40N 30°37' E 122°04'0 0.9
2018-Feb-11 13:30N 30°37' E 122°04'5 9.6
2018-Feb-11 12:57N 30°34' E 122°10'4 8.2
2018-Feb-11 12:29N 30°34' E 122°14'3 5.7
2018-Feb-11 11:59N 30°34' E 122°17'1512.7
2018-Feb-11 10:49N 30°32' E 122°35'310.5
2018-Feb-11 10:30N 30°31' E 122°38'432 8.3
2018-Feb-09 06:30N 24°11' E 118°48'5313.2
2018-Feb-09 02:30N 23°37' E 118°04'1912.6
2018-Feb-09 01:00N 23°25' E 117°48'612.4
2018-Feb-09 00:30N 23°21' E 117°43'1212.4
2018-Feb-08 23:30N 23°14' E 117°32'1212.4
2018-Feb-08 22:30N 23°07' E 117°20'  
Track history (hours):
 
Tides and Currents Weather Stations Pressure Air Temp Water Temp Dewpoint Dewpoint Depression Visibility Wind Speed Wind Dir Waves Ship Positions

CSCL Arctic Ocean

Last reported at 2018-Feb-16 13:30 UTC. Time now 2018-Feb-20 13:56 UTC.
Position N 23°05' E 117°17'.

Length 400 m; draft 11.4 m.

Type: Ship (hazmat cat A). MMSI: 477967700.

Date/timePositionNaut miles runAvg speedWind from/ knotsBaromVisibWave heightAir tempDewpointWater temp
2018-Feb-16 13:30N 23°05' E 117°17'917.9
2018-Feb-16 13:00N 23°10' E 117°24'917.5
2018-Feb-16 12:30N 23°15' E 117°32'917.6
2018-Feb-16 12:00N 23°20' E 117°40'917.9
2018-Feb-16 11:29N 23°25' E 117°49'918.2
2018-Feb-16 11:00N 23°29' E 117°57'918.0
2018-Feb-16 10:30N 23°37' E 118°03'1118.2
2018-Feb-16 09:55N 23°46' E 118°08'818.3
2018-Feb-16 09:30N 23°53' E 118°12'918.5
2018-Feb-16 09:00N 24°01' E 118°16'918.3
2018-Feb-16 08:30N 24°10' E 118°19'917.7
2018-Feb-16 08:00N 24°17' E 118°13'815.8
2018-Feb-16 07:29N 24°23' E 118°07'611.8
2018-Feb-16 07:00N 24°26' E 118°02'4 6.0
2018-Feb-16 06:25N 24°27' E 117°58'0 0.2
2018-Feb-16 05:55N 24°27' E 117°58'0 0.0
2018-Feb-16 05:28N 24°27' E 117°58'0 0.0
2018-Feb-16 04:55N 24°27' E 117°58'0 0.0
2018-Feb-16 04:28N 24°27' E 117°58'0 0.0
2018-Feb-16 03:58N 24°27' E 117°58'0 0.0
2018-Feb-16 03:28N 24°27' E 117°58'0 0.0
2018-Feb-16 02:58N 24°27' E 117°58'0 0.0
2018-Feb-16 02:22N 24°27' E 117°58'0 0.0
2018-Feb-16 01:58N 24°27' E 117°58'0 0.0
2018-Feb-16 01:28N 24°27' E 117°58'0 0.0
2018-Feb-16 00:49N 24°27' E 117°58'0 0.0
2018-Feb-16 00:28N 24°27' E 117°58'0 0.0
2018-Feb-15 23:55N 24°27' E 117°58'0 0.0
2018-Feb-15 23:19N 24°27' E 117°58'0 0.2
2018-Feb-15 22:58N 24°27' E 117°58'0 0.1
2018-Feb-15 22:28N 24°27' E 117°58'0 0.0
2018-Feb-15 21:58N 24°27' E 117°58'0 0.0
2018-Feb-15 21:28N 24°27' E 117°58'0 0.0
2018-Feb-15 20:58N 24°27' E 117°58'0 0.0
2018-Feb-15 20:28N 24°27' E 117°58'0 0.0
2018-Feb-15 19:58N 24°27' E 117°58'0 0.0
2018-Feb-15 19:28N 24°27' E 117°58'0 0.0
2018-Feb-15 18:58N 24°27' E 117°58'0 0.0
2018-Feb-15 18:25N 24°27' E 117°58'0 0.0
2018-Feb-15 17:58N 24°27' E 117°58'0 0.0
2018-Feb-15 17:25N 24°27' E 117°58'0 0.1
2018-Feb-15 16:58N 24°27' E 117°58'0 0.1
2018-Feb-15 16:22N 24°27' E 117°58'0 0.0
2018-Feb-15 15:58N 24°27' E 117°58'0 0.0
2018-Feb-15 13:31N 24°27' E 117°58'0 0.2
2018-Feb-15 13:28N 24°27' E 117°58'0 0.0
2018-Feb-15 12:55N 24°27' E 117°58'0 0.0
2018-Feb-15 10:34N 24°27' E 117°58'0 0.0
2018-Feb-15 10:28N 24°27' E 117°58'0 0.0
2018-Feb-15 09:58N 24°27' E 117°58'0 0.1
2018-Feb-15 09:25N 24°27' E 117°58'0 0.1
2018-Feb-15 08:58N 24°27' E 117°58'0 0.0
2018-Feb-15 08:19N 24°27' E 117°58'0 0.0
2018-Feb-15 07:58N 24°27' E 117°58'0 0.0
2018-Feb-15 07:28N 24°27' E 117°58'0 0.0
2018-Feb-15 06:58N 24°27' E 117°58'0 0.0
2018-Feb-15 06:22N 24°27' E 117°58'0 0.0
2018-Feb-15 05:58N 24°27' E 117°58'0 0.4
2018-Feb-15 05:30N 24°27' E 117°59'3 5.9
2018-Feb-15 05:00N 24°26' E 118°02'612.2
2018-Feb-15 04:29N 24°23' E 118°08'611.9
2018-Feb-15 04:00N 24°19' E 118°12'713.7
2018-Feb-15 03:31N 24°13' E 118°17'612.4
2018-Feb-15 03:01N 24°11' E 118°23'1 2.2
2018-Feb-15 02:30N 24°10' E 118°24'3 5.9
2018-Feb-15 02:01N 24°11' E 118°27'713.0
2018-Feb-15 01:30N 24°13' E 118°34'15412.3
2018-Feb-14 12:56N 26°01' E 120°36'613.1
2018-Feb-14 12:30N 26°05' E 120°39'612.8
2018-Feb-14 12:00N 26°11' E 120°43'2112.8
2018-Feb-14 10:24N 26°27' E 120°56'612.8
2018-Feb-14 09:56N 26°32' E 121°00'512.5
2018-Feb-14 09:30N 26°37' E 121°03'712.7
2018-Feb-14 08:58N 26°43' E 121°07'812.7
2018-Feb-14 08:19N 26°50' E 121°12'230 8.4
2018-Feb-13 05:05N 30°33' E 122°14'215.2
2018-Feb-13 04:59N 30°34' E 122°12'7 0.2
2018-Feb-11 13:40N 30°37' E 122°04'0 0.9
2018-Feb-11 13:30N 30°37' E 122°04'5 9.6
2018-Feb-11 12:57N 30°34' E 122°10'4 8.2
2018-Feb-11 12:29N 30°34' E 122°14'3 5.7
2018-Feb-11 11:59N 30°34' E 122°17'1512.7
2018-Feb-11 10:49N 30°32' E 122°35'310.5
2018-Feb-11 10:30N 30°31' E 122°38'432 8.3
2018-Feb-09 06:30N 24°11' E 118°48'5313.2
2018-Feb-09 02:30N 23°37' E 118°04'1912.6
2018-Feb-09 01:00N 23°25' E 117°48'612.4
2018-Feb-09 00:30N 23°21' E 117°43'1212.4
2018-Feb-08 23:30N 23°14' E 117°32'1212.4
2018-Feb-08 22:30N 23°07' E 117°20'  

Dump ship's entire track history